Time,TemperatureF,DewpointF,PressureIn,WindDirection,WindDirectionDegrees,WindSpeedMPH,WindSpeedGustMPH,Humidity,HourlyPrecipIn,Conditions,Clouds,dailyrainin,SolarRadiationWatts/m^2,SoftwareType,DateUTC
2013-05-04 00:04:00,57.7,49.0,29.95,ENE,67,11.0,25.0,72,0.00,,,0.00,0,weatherlink.com 1.10,2013-05-04 04:04:00,
2013-05-04 00:19:00,57.8,49.0,29.95,SSE,149,4.0,17.0,73,0.00,,,0.00,0,weatherlink.com 1.10,2013-05-04 04:19:00,
2013-05-04 00:34:00,58.0,49.0,29.95,East,81,7.0,23.0,72,0.00,,,0.00,0,weatherlink.com 1.10,2013-05-04 04:34:00,
2013-05-04 00:49:00,58.0,49.0,29.94,SE,144,10.0,25.0,72,0.00,,,0.00,0,weatherlink.com 1.10,2013-05-04 04:49:00,
2013-05-04 01:04:00,57.8,49.0,29.94,ESE,106,7.0,19.0,73,0.00,,,0.00,0,weatherlink.com 1.10,2013-05-04 05:04:00,
2013-05-04 01:19:00,57.8,49.0,29.94,NNE,22,3.0,22.0,72,0.00,,,0.00,0,weatherlink.com 1.10,2013-05-04 05:19:00,
2013-05-04 01:34:00,57.9,49.0,29.93,ESE,105,8.0,18.0,72,0.00,,,0.00,0,weatherlink.com 1.10,2013-05-04 05:34:00,
2013-05-04 01:49:00,57.6,49.0,29.93,East,100,9.0,26.0,72,0.00,,,0.00,0,weatherlink.com 1.10,2013-05-04 05:49:00,
2013-05-04 02:04:00,57.3,48.0,29.92,South,172,6.0,18.0,72,0.00,,,0.00,0,weatherlink.com 1.10,2013-05-04 06:04:00,
2013-05-04 02:19:00,57.2,49.0,29.92,East,92,8.0,16.0,73,0.00,,,0.00,0,weatherlink.com 1.10,2013-05-04 06:19:00,
2013-05-04 02:34:00,56.9,48.0,29.92,East,82,18.0,24.0,73,0.00,,,0.00,0,weatherlink.com 1.10,2013-05-04 06:34:00,
2013-05-04 02:49:00,56.6,48.0,29.91,SSE,148,13.0,19.0,72,0.00,,,0.00,0,weatherlink.com 1.10,2013-05-04 06:49:00,
2013-05-04 03:05:00,56.1,48.0,29.92,SSE,153,15.0,18.0,73,0.00,,,0.00,0,weatherlink.com 1.10,2013-05-04 07:05:00,
2013-05-04 03:20:00,55.6,46.0,29.91,SSE,156,6.0,24.0,70,0.00,,,0.00,0,weatherlink.com 1.10,2013-05-04 07:20:00,
2013-05-04 03:35:00,55.6,46.0,29.91,SSE,147,8.0,21.0,70,0.00,,,0.00,0,weatherlink.com 1.10,2013-05-04 07:35:00,
2013-05-04 03:50:00,55.3,46.0,29.91,ESE,109,5.0,17.0,71,0.00,,,0.00,0,weatherlink.com 1.10,2013-05-04 07:50:00,
2013-05-04 04:05:00,54.4,46.0,29.92,ESE,118,8.0,22.0,73,0.00,,,0.00,0,weatherlink.com 1.10,2013-05-04 08:05:00,
2013-05-04 04:20:00,54.0,46.0,29.92,ESE,117,10.0,18.0,75,0.00,,,0.00,0,weatherlink.com 1.10,2013-05-04 08:20:00,
2013-05-04 04:35:00,53.5,45.0,29.92,East,101,15.0,18.0,72,0.00,,,0.00,0,weatherlink.com 1.10,2013-05-04 08:35:00,
2013-05-04 04:50:00,53.8,43.0,29.91,SSE,152,13.0,22.0,67,0.00,,,0.00,0,weatherlink.com 1.10,2013-05-04 08:50:00,
2013-05-04 05:05:00,53.8,43.0,29.92,SE,130,5.0,15.0,67,0.00,,,0.00,0,weatherlink.com 1.10,2013-05-04 09:05:00,
2013-05-04 05:21:00,53.7,42.0,29.92,East,85,11.0,23.0,64,0.00,,,0.00,0,weatherlink.com 1.10,2013-05-04 09:21:00,
2013-05-04 05:35:00,53.5,41.0,29.91,ESE,112,8.0,21.0,63,0.00,,,0.00,0,weatherlink.com 1.10,2013-05-04 09:35:00,
2013-05-04 05:50:00,53.2,41.0,29.91,ENE,69,4.0,18.0,64,0.00,,,0.00,0,weatherlink.com 1.10,2013-05-04 09:50:00,
2013-05-04 06:05:00,53.0,42.0,29.92,South,179,6.0,17.0,66,0.00,,,0.00,0,weatherlink.com 1.10,2013-05-04 10:05:00,
2013-05-04 06:20:00,52.8,42.0,29.92,ESE,110,7.0,17.0,66,0.00,,,0.00,0,weatherlink.com 1.10,2013-05-04 10:20:00,
2013-05-04 06:35:00,52.5,43.0,29.91,South,178,9.0,15.0,70,0.00,,,0.00,0,weatherlink.com 1.10,2013-05-04 10:35:00,
2013-05-04 06:50:00,52.4,44.0,29.92,East,84,6.0,24.0,73,0.00,,,0.00,5,weatherlink.com 1.10,2013-05-04 10:50:00,
2013-05-04 07:05:00,52.4,44.0,29.93,SE,135,10.0,19.0,73,0.00,,,0.00,7,weatherlink.com 1.10,2013-05-04 11:05:00,
2013-05-04 07:20:00,52.4,45.0,29.93,East,82,8.0,15.0,75,0.00,,,0.00,14,weatherlink.com 1.10,2013-05-04 11:20:00,
2013-05-04 07:35:00,52.4,45.0,29.93,ENE,72,9.0,17.0,75,0.00,,,0.00,19,weatherlink.com 1.10,2013-05-04 11:35:00,
2013-05-04 07:50:00,52.2,45.0,29.93,ENE,78,9.0,18.0,76,0.00,,,0.00,21,weatherlink.com 1.10,2013-05-04 11:50:00,
2013-05-04 08:05:00,52.2,45.0,29.93,SSE,160,5.0,10.0,77,0.00,,,0.00,33,weatherlink.com 1.10,2013-05-04 12:05:00,
2013-05-04 08:35:00,53.6,46.0,29.93,SE,128,3.0,22.0,76,0.00,,,0.00,114,weatherlink.com 1.10,2013-05-04 12:35:00,
2013-05-04 08:50:00,53.6,46.0,29.93,ESE,103,5.0,18.0,74,0.00,,,0.00,88,weatherlink.com 1.10,2013-05-04 12:50:00,
2013-05-04 09:05:00,54.8,46.0,29.93,SE,128,6.0,20.0,72,0.00,,,0.00,306,weatherlink.com 1.10,2013-05-04 13:05:00,
2013-05-04 09:20:00,55.4,46.0,29.93,South,178,6.0,18.0,71,0.00,,,0.00,315,weatherlink.com 1.10,2013-05-04 13:20:00,
2013-05-04 09:35:00,54.2,46.0,29.93,SE,135,10.0,26.0,75,0.00,,,0.00,128,weatherlink.com 1.10,2013-05-04 13:35:00,
2013-05-04 09:50:00,52.9,47.0,29.91,ENE,65,12.0,25.0,79,0.00,,,0.00,213,weatherlink.com 1.10,2013-05-04 13:50:00,
2013-05-04 10:06:00,53.8,48.0,29.92,SE,134,11.0,18.0,80,0.00,,,0.00,450,weatherlink.com 1.10,2013-05-04 14:06:00,
2013-05-04 10:21:00,53.4,47.0,29.92,South,171,4.0,19.0,79,0.00,,,0.00,123,weatherlink.com 1.10,2013-05-04 14:21:00,
2013-05-04 10:36:00,52.9,47.0,29.92,ESE,102,15.0,17.0,81,0.00,,,0.00,105,weatherlink.com 1.10,2013-05-04 14:36:00,
2013-05-04 10:51:00,53.2,47.0,29.92,SE,144,13.0,22.0,80,0.00,,,0.00,213,weatherlink.com 1.10,2013-05-04 14:51:00,
2013-05-04 11:06:00,54.0,48.0,29.92,SE,128,10.0,17.0,80,0.00,,,0.00,206,weatherlink.com 1.10,2013-05-04 15:06:00,
2013-05-04 11:21:00,54.3,48.0,29.92,South,175,7.0,24.0,79,0.00,,,0.00,223,weatherlink.com 1.10,2013-05-04 15:21:00,
2013-05-04 11:36:00,54.5,48.0,29.91,East,86,19.0,20.0,79,0.00,,,0.00,366,weatherlink.com 1.10,2013-05-04 15:36:00,
2013-05-04 11:51:00,55.1,48.0,29.91,SSE,148,9.0,23.0,78,0.00,,,0.00,355,weatherlink.com 1.10,2013-05-04 15:51:00,
2013-05-04 12:06:00,56.6,48.0,29.90,South,179,15.0,27.0,74,0.00,,,0.00,390,weatherlink.com 1.10,2013-05-04 16:06:00,
2013-05-04 12:21:00,55.9,49.0,29.90,SSW,206,4.0,16.0,78,0.00,,,0.00,443,weatherlink.com 1.10,2013-05-04 16:21:00,
2013-05-04 12:36:00,56.1,50.0,29.90,ESE,119,3.0,23.0,79,0.00,,,0.00,413,weatherlink.com 1.10,2013-05-04 16:36:00,
2013-05-04 12:51:00,54.6,49.0,29.90,ESE,113,12.0,16.0,81,0.00,,,0.00,130,weatherlink.com 1.10,2013-05-04 16:51:00,
2013-05-04 13:06:00,53.8,49.0,29.89,SSE,160,3.0,17.0,83,0.00,,,0.00,257,weatherlink.com 1.10,2013-05-04 17:06:00,
2013-05-04 13:21:00,55.0,49.0,29.88,ESE,120,5.0,21.0,81,0.00,,,0.00,271,weatherlink.com 1.10,2013-05-04 17:21:00,
2013-05-04 13:36:00,55.9,50.0,29.87,SSE,165,3.0,16.0,81,0.00,,,0.00,380,weatherlink.com 1.10,2013-05-04 17:36:00,
2013-05-04 13:51:00,55.3,49.0,29.88,SSE,162,12.0,24.0,79,0.00,,,0.00,195,weatherlink.com 1.10,2013-05-04 17:51:00,
2013-05-04 14:06:00,55.9,50.0,29.86,SE,135,9.0,20.0,80,0.00,,,0.00,427,weatherlink.com 1.10,2013-05-04 18:06:00,
2013-05-04 14:21:00,55.4,49.0,29.86,SE,135,5.0,18.0,79,0.00,,,0.00,128,weatherlink.com 1.10,2013-05-04 18:21:00,
2013-05-04 14:36:00,54.6,49.0,29.86,SE,128,8.0,19.0,81,0.00,,,0.00,127,weatherlink.com 1.10,2013-05-04 18:36:00,
2013-05-04 14:51:00,54.6,49.0,29.85,ESE,105,14.0,26.0,81,0.00,,,0.00,214,weatherlink.com 1.10,2013-05-04 18:51:00,
2013-05-04 15:06:00,55.3,50.0,29.85,SE,128,9.0,20.0,81,0.00,,,0.00,218,weatherlink.com 1.10,2013-05-04 19:06:00,
2013-05-04 15:21:00,54.7,49.0,29.85,ESE,103,10.0,26.0,81,0.00,,,0.00,77,weatherlink.com 1.10,2013-05-04 19:21:00,
2013-05-04 15:36:00,54.6,49.0,29.86,SSE,151,12.0,21.0,82,0.00,,,0.00,158,weatherlink.com 1.10,2013-05-04 19:36:00,
2013-05-04 15:51:00,54.4,50.0,29.86,SE,144,15.0,19.0,84,0.00,,,0.00,183,weatherlink.com 1.10,2013-05-04 19:51:00,
2013-05-04 16:06:00,54.5,49.0,29.85,ESE,120,8.0,21.0,83,0.00,,,0.00,213,weatherlink.com 1.10,2013-05-04 20:06:00,
2013-05-04 16:21:00,55.2,50.0,29.85,ESE,103,7.0,25.0,81,0.00,,,0.00,214,weatherlink.com 1.10,2013-05-04 20:21:00,
2013-05-04 16:36:00,54.8,49.0,29.84,SSE,157,15.0,27.0,81,0.00,,,0.00,206,weatherlink.com 1.10,2013-05-04 20:36:00,
2013-05-04 16:51:00,55.0,49.0,29.84,SSW,196,6.0,27.0,81,0.00,,,0.00,165,weatherlink.com 1.10,2013-05-04 20:51:00,
2013-05-04 17:06:00,54.8,49.0,29.84,ESE,123,13.0,25.0,81,0.00,,,0.00,51,weatherlink.com 1.10,2013-05-04 21:06:00,
2013-05-04 17:21:00,53.6,49.0,29.83,SSE,149,10.0,18.0,84,0.00,,,0.00,37,weatherlink.com 1.10,2013-05-04 21:21:00,
2013-05-04 17:36:00,54.2,49.0,29.84,SE,142,6.0,27.0,83,0.00,,,0.00,58,weatherlink.com 1.10,2013-05-04 21:36:00,
2013-05-04 17:51:00,53.6,49.0,29.87,ESE,119,5.0,15.0,85,0.00,,,0.00,9,weatherlink.com 1.10,2013-05-04 21:51:00,
2013-05-04 18:06:00,53.2,50.0,29.84,East,92,2.0,9.0,87,0.00,,,0.00,11,weatherlink.com 1.10,2013-05-04 22:06:00,
2013-05-04 18:21:00,54.0,49.0,29.86,ESE,115,10.0,23.0,84,0.00,,,0.00,21,weatherlink.com 1.10,2013-05-04 22:21:00,
2013-05-04 18:36:00,53.5,50.0,29.87,ESE,119,7.0,14.0,87,0.00,,,0.00,11,weatherlink.com 1.10,2013-05-04 22:36:00,
2013-05-04 18:51:00,53.5,50.0,29.87,SE,142,4.0,8.0,87,0.00,,,0.00,12,weatherlink.com 1.10,2013-05-04 22:51:00,
2013-05-04 19:06:00,53.8,50.0,29.84,SSE,148,7.0,20.0,86,0.00,,,0.00,35,weatherlink.com 1.10,2013-05-04 23:06:00,
2013-05-04 19:21:00,54.2,50.0,29.86,South,184,1.0,10.0,85,0.00,,,0.00,5,weatherlink.com 1.10,2013-05-04 23:21:00,
2013-05-04 19:36:00,54.0,50.0,29.86,SE,145,3.0,18.0,87,0.00,,,0.00,0,weatherlink.com 1.10,2013-05-04 23:36:00,
2013-05-04 19:51:00,53.8,50.0,29.87,SSE,160,9.0,13.0,87,0.00,,,0.00,0,weatherlink.com 1.10,2013-05-04 23:51:00,
2013-05-04 20:06:00,53.6,50.0,29.86,ESE,115,3.0,12.0,87,0.00,,,0.00,7,weatherlink.com 1.10,2013-05-05 00:06:00,
2013-05-04 20:21:00,53.9,50.0,29.86,ESE,104,2.0,14.0,85,0.07,,,0.07,0,weatherlink.com 1.10,2013-05-05 00:21:00,
2013-05-04 20:36:00,54.4,50.0,29.84,South,172,14.0,21.0,84,0.08,,,0.08,0,weatherlink.com 1.10,2013-05-05 00:36:00,
2013-05-04 20:51:00,54.7,50.0,29.85,SE,140,6.0,28.0,83,0.10,,,0.10,0,weatherlink.com 1.10,2013-05-05 00:51:00,
2013-05-04 21:06:00,55.0,49.0,29.85,ENE,74,10.0,26.0,81,0.11,,,0.11,0,weatherlink.com 1.10,2013-05-05 01:06:00,
2013-05-04 21:21:00,54.9,49.0,29.84,SSE,163,5.0,20.0,81,0.06,,,0.13,0,weatherlink.com 1.10,2013-05-05 01:21:00,
2013-05-04 21:36:00,55.0,50.0,29.85,SE,136,5.0,21.0,82,0.05,,,0.13,0,weatherlink.com 1.10,2013-05-05 01:36:00,
2013-05-04 21:51:00,54.3,50.0,29.86,SSE,153,8.0,21.0,84,0.06,,,0.16,0,weatherlink.com 1.10,2013-05-05 01:51:00,
2013-05-04 22:06:00,54.3,50.0,29.86,South,182,6.0,18.0,85,0.08,,,0.19,0,weatherlink.com 1.10,2013-05-05 02:06:00,
2013-05-04 22:21:00,54.5,50.0,29.85,South,176,9.0,22.0,84,0.08,,,0.21,0,weatherlink.com 1.10,2013-05-05 02:21:00,
2013-05-04 22:36:00,54.4,49.0,29.86,ENE,78,10.0,20.0,83,0.08,,,0.21,0,weatherlink.com 1.10,2013-05-05 02:36:00,
2013-05-04 22:51:00,54.6,49.0,29.85,SSW,209,6.0,22.0,82,0.05,,,0.22,0,weatherlink.com 1.10,2013-05-05 02:51:00,
2013-05-04 23:06:00,54.1,49.0,29.84,SSE,155,13.0,21.0,84,0.04,,,0.23,0,weatherlink.com 1.10,2013-05-05 03:06:00,
2013-05-04 23:21:00,54.0,50.0,29.84,East,101,9.0,25.0,85,0.04,,,0.25,0,weatherlink.com 1.10,2013-05-05 03:21:00,
2013-05-04 23:36:00,54.2,50.0,29.83,SSW,193,19.0,19.0,84,0.06,,,0.27,0,weatherlink.com 1.10,2013-05-05 03:36:00,
2013-05-04 23:51:00,54.5,50.0,29.84,NE,51,4.0,26.0,84,0.10,,,0.32,0,weatherlink.com 1.10,2013-05-05 03:51:00,